Stampede Pass, WA

10:06 PM PDT on July 21, 2017 (GMT -0700)
Stampede Pass

Weather History for KSMP - February, 2012

Change the Weather History Date:

Wednesday, February 8, 2012

  Actual Average Record
Temperature  
Mean Temperature 28 °F -  
Max Temperature 30 °F 30 °F 44 °F (2006)
Min Temperature 26 °F 23 °F 14 °F (1997)
Degree Days  
Heating Degree Days 37    
Moisture  
Dew Point 28 °F    
Average Humidity 97    
Maximum Humidity 100    
Minimum Humidity 93    
Precipitation  
Precipitation 0.06 in - - ()
Sea Level Pressure  
Sea Level Pressure 30.15 in    
Wind  
Wind Speed 5 mph (East)    
Max Wind Speed 7 mph    
Max Gust Speed -    
Visibility 1 miles    
Events Fog , Snow    
Averages and records for this station are not official NWS values.
T = Trace of Precipitation, MM = Missing Value Source: NWS Daily Summary

Daily Weather History Graph

Daily Weather History Graph

Search for Another Location

Airport or City:

Trip Planner

Search our weather history database for the weather conditions in past years. The results will help you decide how hot, cold, wet, or windy it might be!

Date:

Astronomy

Feb. 08, 2012 Rise Set
Actual Time 7:21 AM PST 5:17 PM PST
Civil Twilight 6:49 AM PST 5:49 PM PST
Nautical Twilight 6:13 AM PST 6:26 PM PST
Astronomical Twilight 5:37 AM PST 7:01 PM PST
Moon 6:53 PM PST (2/8) 7:20 AM PST (2/8)
Length of Visible Light 11h 00m
Length of Day
9h 55m
Full, 99% of the Moon is Illuminated
Feb 8
Full
Feb 14
Last Quarter
Feb 21
New
Feb 29
First Quarter
Mar 8
Full

Hourly Weather History & Observations

Time (PST) Temp. Windchill Dew Point Humidity Pressure Visibility Wind Dir Wind Speed Gust Speed Precip Events Conditions
12:18 AM 26.6 °F 19.1 °F 26.6 °F 100% 30.02 in 1.5 mi Variable 6.9 mph - 0.00 in Snow Light Snow
12:34 AM 26.6 °F 19.1 °F 26.6 °F 100% 30.02 in 1.0 mi East 6.9 mph - 0.01 in Snow Light Snow
12:42 AM 26.6 °F 21.2 °F 26.6 °F 100% 30.03 in 0.8 mi Variable 4.6 mph - 0.02 in Snow Light Snow
12:56 AM 27.0 °F 21.6 °F 27.0 °F 100% 30.11 in 0.8 mi Variable 4.6 mph - 0.02 in Snow Light Snow
1:45 AM 26.6 °F 19.1 °F 26.6 °F 100% 30.04 in 1.0 mi Variable 6.9 mph - 0.02 in Snow Light Snow
2:10 AM 26.6 °F 21.2 °F 26.6 °F 100% 30.05 in 1.0 mi Variable 4.6 mph - 0.00 in Snow Light Snow
2:47 AM 28.4 °F 22.2 °F 26.6 °F 93% 30.05 in 0.8 mi Variable 5.8 mph - 0.02 in Snow Light Snow
3:33 AM 26.6 °F 21.2 °F 26.6 °F 100% 30.06 in 1.0 mi Variable 4.6 mph - 0.02 in Snow Light Snow
3:42 AM 26.6 °F 21.2 °F 26.6 °F 100% 30.06 in 0.8 mi Variable 4.6 mph - 0.02 in Snow Light Snow
4:21 AM 28.4 °F 22.2 °F 26.6 °F 93% 30.06 in 0.8 mi Variable 5.8 mph - 0.01 in Snow Light Snow
4:56 AM 28.0 °F 21.7 °F 27.0 °F 96% 30.15 in 1.0 mi Variable 5.8 mph - 0.01 in Snow Light Snow
6:56 AM 27.0 °F 21.6 °F 27.0 °F 100% 30.17 in 0.5 mi Variable 4.6 mph - 0.00 in Fog Light Freezing Fog
7:35 AM 26.6 °F 20.0 °F 26.6 °F 100% 30.08 in 1.2 mi Variable 5.8 mph - N/A   Overcast
7:46 AM 26.6 °F 20.0 °F 26.6 °F 100% 30.09 in 0.5 mi Variable 5.8 mph - N/A Fog Light Freezing Fog
7:56 AM 27.0 °F 21.6 °F 27.0 °F 100% 30.19 in 0.2 mi Variable 4.6 mph - N/A Fog Light Freezing Fog
8:03 AM 28.4 °F 23.3 °F 26.6 °F 93% 30.10 in 0.5 mi Variable 4.6 mph - N/A Fog Light Freezing Fog
9:56 AM 28.0 °F 22.8 °F 28.0 °F 100% 30.23 in 0.2 mi Variable 4.6 mph - N/A Fog Light Freezing Fog
12:23 PM 28.4 °F 21.2 °F 28.4 °F 100% 30.16 in 0.5 mi Variable 6.9 mph - 0.00 in Fog Light Freezing Fog
12:47 PM 28.4 °F 22.2 °F 28.4 °F 100% 30.17 in 1.0 mi Variable 5.8 mph - 0.00 in Snow Light Snow
1:56 PM 28.9 °F 23.9 °F 28.9 °F 100% 30.27 in 0.2 mi Variable 4.6 mph - 0.02 in Fog Light Freezing Fog
2:31 PM 30.2 °F 25.4 °F 28.4 °F 93% 30.17 in 0.8 mi Variable 4.6 mph - 0.01 in Snow Light Snow
3:06 PM 30.2 °F 25.4 °F 28.4 °F 93% 30.18 in 1.0 mi Variable 4.6 mph - 0.00 in   Overcast
3:24 PM 30.2 °F - 28.4 °F 93% 30.19 in 1.5 mi Calm Calm - 0.01 in Snow Light Snow
3:43 PM 30.2 °F 26.7 °F 30.2 °F 100% 30.19 in 1.8 mi Variable 3.5 mph - 0.02 in   Overcast
4:43 PM 30.2 °F 24.3 °F 28.4 °F 93% 30.19 in 1.2 mi Variable 5.8 mph - 0.01 in   Overcast
4:56 PM 30.0 °F 26.5 °F 28.9 °F 96% 30.29 in 1.5 mi East 3.5 mph - 0.01 in   Overcast
5:07 PM 30.2 °F 25.4 °F 28.4 °F 93% 30.20 in 0.8 mi Variable 4.6 mph - N/A   Overcast
5:16 PM 30.2 °F 26.7 °F 28.4 °F 93% 30.20 in 1.5 mi East 3.5 mph - N/A   Overcast
5:19 PM 30.2 °F 26.7 °F 28.4 °F 93% 30.20 in 3.0 mi Variable 3.5 mph - N/A   Overcast
5:49 PM 30.2 °F 26.7 °F 28.4 °F 93% 30.20 in 2.0 mi ENE 3.5 mph - N/A   Overcast
5:56 PM 30.0 °F 26.5 °F 28.9 °F 96% 30.29 in 1.2 mi East 3.5 mph - N/A   Overcast
6:35 PM 28.4 °F 22.2 °F 28.4 °F 100% 30.20 in 0.2 mi East 5.8 mph - N/A Fog Light Freezing Fog
7:20 PM 30.2 °F 26.7 °F 28.4 °F 93% 30.21 in 0.5 mi ESE 3.5 mph - N/A Fog Light Freezing Fog
7:49 PM 30.2 °F 25.4 °F 28.4 °F 93% 30.21 in 0.2 mi East 4.6 mph - N/A Fog Light Freezing Fog
10:17 PM 30.2 °F 26.7 °F 30.2 °F 100% 30.24 in 1.8 mi East 3.5 mph - N/A   Overcast
11:30 PM 28.4 °F 22.2 °F 28.4 °F 100% 30.25 in 0.2 mi East 5.8 mph - N/A Fog Light Freezing Fog